[[{"header":{"parameterUnit":"m.s-1","parameterCategory":1,"la1":30.2991,"la2":30.254,"lo1":-89.0895,"lo2":-89.0444,"dy":0.0017,"dx":0.0017,"nx":28,"ny":28,"refTime":"2024-05-26T21:00:00:Z","depth":0,"parameterNumber":2,"parameterNumberName":"U-component_of_WINDS"},"data":[0,0,0,0,0,0,0,0,0,0,0,0,0,0,0,0,0,0,0,0,0,0,0,0,0,0,0,0,0,0,0,0,0,0,0,0,0,0,0,0,0,0,0,0,0,0,0,0,0,0,0,0,0,0,0,0,0,0,1.4843,1.4844,0,1.4943,1.4944,1.4945,1.4902,1.49,1.4897,1.4895,1.5003,1.5008,1.5013,0,0,0,0,0,0,0,0,0,0,0,0,0,1.4619,1.4623,1.4843,1.4844,1.4845,1.4943,1.4944,1.4945,1.4902,1.4899,1.4896,1.4894,1.5001,1.5007,1.5013,0,0,0,0,0,0,0,0,0,0,0,0,0,1.4717,1.4625,1.4843,1.4835,1.4836,1.4942,1.4944,1.4946,1.4903,1.4899,1.4896,1.4892,1.4999,1.5006,1.5014,1.5135,0,0,1.5038,1.5041,0,0,0,0,0,0,0,0,1.4712,1.4726,1.4835,1.4836,1.4837,1.4906,1.4904,1.5009,1.4904,1.4878,1.4895,1.489,1.4974,1.4983,1.501,1.514,1.5145,1.5038,1.5043,1.5046,1.5048,0,0,0,0,0,0,0,1.4705,1.4721,1.4882,1.4837,1.4838,1.4829,1.4839,1.4924,1.4945,1.488,1.4877,1.4889,1.4974,1.5003,1.5013,1.5146,1.5038,1.5045,1.505,1.5053,1.5378,1.5382,0,0,0,0,0,0,1.4698,1.4716,1.4879,1.4885,1.4764,1.4836,1.4847,1.4888,1.4944,1.4949,1.4892,1.4887,1.4992,1.5004,1.5016,1.5159,1.5046,1.5053,1.5058,1.5374,1.5379,1.5383,0,0,0,0,0,0,1.4693,1.4713,1.4875,1.48,1.482,1.4843,1.489,1.4892,1.4921,1.4953,1.4957,1.4918,1.4989,1.5005,1.5105,1.5163,1.5057,1.5064,1.5369,1.5376,1.5381,1.5448,0,0,0,0,0,0,1.4687,1.4711,1.4756,1.4801,1.4824,1.4961,1.4893,1.4896,1.4933,1.4927,1.4979,1.4984,1.4988,1.5093,1.5112,1.5171,1.507,1.5364,1.5372,1.5379,1.5441,1.5456,1.5468,0,0,0,0,0,1.4679,1.4773,1.4759,1.4779,1.4881,1.4965,1.4978,1.4979,1.4938,1.4984,1.5005,1.4982,1.5154,1.5104,1.5125,1.5187,1.5361,1.537,1.5379,1.5435,1.5453,1.5468,0,0,0,0,0,0,1.4737,1.4779,1.4764,1.4875,1.4916,1.4957,1.5015,1.4998,1.5053,1.5046,1.5046,1.5058,1.516,1.5184,1.5128,1.5306,1.5251,1.5265,1.5287,1.5304,1.5318,1.5309,1.5076,0,0,0,0,0,1.4762,1.4825,1.4859,1.4954,1.4975,1.4992,1.5029,1.5025,1.5069,1.5087,1.5115,1.516,1.5223,1.5265,1.5326,1.5445,1.5454,1.5498,1.5511,1.5523,1.5534,1.5597,1.5616,1.5413,1.5413,1.5413,0,0,1.4816,1.4847,1.4887,1.4967,1.4998,1.5064,1.5007,1.508,1.5129,1.5099,1.5193,1.5215,1.5265,1.5374,1.5424,1.5397,1.5592,1.5534,1.5543,1.5548,1.5608,1.5627,1.5644,1.5419,1.5418,1.5417,0,0,1.4947,1.4977,1.5058,1.509,1.5138,1.5148,1.5168,1.5211,1.5224,1.5319,1.5296,1.5356,1.5466,1.5502,1.5534,1.5677,1.5658,1.5698,1.5769,1.583,1.5846,1.586,1.5909,1.5927,1.5709,1.5709,1.5709,0,1.5008,1.5105,1.5103,1.5176,1.5212,1.5185,1.5267,1.53,1.5366,1.5391,1.536,1.5496,1.5528,1.5644,1.5678,1.5707,1.5729,1.5691,1.5844,1.5858,1.5871,1.5918,1.5937,1.5714,1.5713,1.5713,1.5712,0,1.5177,1.5244,1.5305,1.5366,1.5409,1.5487,1.5497,1.554,1.5534,1.5547,1.5643,1.568,1.5747,1.5775,1.577,1.589,1.5871,1.5843,1.5787,1.5895,1.5939,1.5957,1.572,1.5718,1.5717,1.5716,0,0,1.5346,1.5404,1.5426,1.5453,1.5504,1.5557,1.5634,1.5696,1.5733,1.578,1.5844,1.5937,1.5909,1.5946,1.5946,1.6,1.6108,1.5964,1.5965,1.5987,1.624,1.626,1.6281,1.6096,1.6099,1.6102,1.6235,0,1.5479,1.5611,1.5611,1.5733,1.5795,1.5771,1.5838,1.5876,1.5891,1.5947,1.5964,1.6029,1.5989,1.6011,1.6063,1.6084,1.6158,1.6074,1.6155,1.6158,1.6141,1.6304,1.6326,1.645,1.6253,1.6256,1.6258,0,1.5652,1.5701,1.5829,1.5868,1.5895,1.5954,1.6011,1.6065,1.6108,1.6115,1.6156,1.6146,1.6225,1.6168,1.6276,1.6218,1.6252,1.6267,1.6272,1.6278,1.6213,1.6313,1.649,1.6508,1.6285,1.6283,1.6281,0,1.576,1.5859,1.5947,1.5972,1.6021,1.6063,1.6086,1.6125,1.6163,1.6213,1.6237,1.6298,1.633,1.6377,1.6384,1.6342,1.6492,1.6436,1.65,1.6499,1.6531,1.6529,1.6714,1.6556,1.6556,1.6555,1.6555,0,1.5907,1.5986,1.5996,1.6051,1.6138,1.6138,1.6225,1.6244,1.628,1.6338,1.6322,1.6377,1.6384,1.6441,1.6448,1.6535,1.6551,1.6558,1.6559,1.6559,1.6557,1.6579,1.657,1.656,1.6559,1.6558,1.6557,0,1.6042,1.6052,1.6147,1.6185,1.6196,1.6259,1.6292,1.6344,1.6357,1.6431,1.6448,1.6469,1.6536,1.6547,1.6627,1.6631,1.6735,1.6728,1.6719,1.6718,1.678,1.6773,1.6984,1.7011,1.6837,1.6839,1.684,0,1.6134,1.6193,1.6237,1.6274,1.6298,1.6358,1.6396,1.6398,1.6438,1.6491,1.6537,1.6601,1.6652,1.676,1.6783,1.6843,1.6836,1.6906,1.6845,1.6842,1.6834,1.683,1.6835,1.6917,1.6919,1.692,1.6921,0,1.6295,1.6297,1.6351,1.6406,1.645,1.6495,1.6537,1.6568,1.6576,1.6622,1.6688,1.6728,1.6807,1.6871,1.6931,1.6955,1.694,1.694,1.6958,1.6957,1.6949,1.6952,1.6749,1.6935,1.6934,1.6933,1.6932,1.6932,1.641,1.6461,1.6499,1.6559,1.6591,1.663,1.668,1.6698,1.6753,1.6816,1.6815,1.6888,1.6929,1.7007,1.7036,1.7093,1.7071,1.7097,1.7103,1.7109,1.7113,1.6941,1.7104,1.7104,1.7103,1.7103,1.7103,0,1.6569,1.6592,1.6647,1.6705,1.6752,1.6732,1.6777,1.6818,1.6881,1.6921,1.6971,1.7047,1.7108,1.7136,1.7196,1.7237,1.7231,1.7253,1.7249,1.7254,1.7131,1.7109,1.7256,1.7256,1.7256,1.7256,1.7256,1.7256,1.6657,1.6741,1.6747,1.6847,1.687,1.694,1.6967,1.7003,1.7034,1.7119,1.7169,1.7186,1.722,1.7283,1.7338,1.7345,1.7367,1.7391,1.7395,1.7279,1.7263,1.7248,1.7227,1.7397,1.7397,1.7513,1.7514,1.7515]},{"header":{"parameterUnit":"m.s-1","parameterCategory":1,"la1":30.2991,"la2":30.254,"lo1":-89.0895,"lo2":-89.0444,"dy":0.0017,"dx":0.0017,"nx":28,"ny":28,"refTime":"2024-05-26T21:00:00:Z","depth":0,"parameterNumber":3,"parameterNumberName":"V-component_of_WINDS"},"data":[0,0,0,0,0,0,0,0,0,0,0,0,0,0,0,0,0,0,0,0,0,0,0,0,0,0,0,0,0,0,0,0,0,0,0,0,0,0,0,0,0,0,0,0,0,0,0,0,0,0,0,0,0,0,0,0,0,0,3.4718,3.4718,0,3.47,3.4699,3.4699,3.4702,3.4702,3.4703,3.4703,3.468,3.4679,3.4678,0,0,0,0,0,0,0,0,0,0,0,0,0,3.4752,3.4751,3.4718,3.4718,3.4718,3.47,3.4699,3.4699,3.4702,3.4702,3.4703,3.4703,3.468,3.4679,3.4678,0,0,0,0,0,0,0,0,0,0,0,0,0,3.4736,3.4751,3.4718,3.4717,3.4717,3.47,3.4699,3.4699,3.4702,3.4702,3.4703,3.4703,3.468,3.4679,3.4678,3.4659,0,0,3.4673,3.4673,0,0,0,0,0,0,0,0,3.4736,3.4734,3.4717,3.4717,3.4717,3.4704,3.4703,3.4686,3.4702,3.4707,3.4703,3.4703,3.4687,3.4685,3.468,3.4658,3.4657,3.4673,3.4672,3.4672,3.4671,0,0,0,0,0,0,0,3.4738,3.4735,3.4711,3.4717,3.4717,3.4716,3.4714,3.4699,3.4694,3.4707,3.4707,3.4705,3.4687,3.4682,3.468,3.4657,3.4673,3.4672,3.4671,3.4671,3.4617,3.4617,0,0,0,0,0,0,3.474,3.4736,3.4711,3.471,3.4728,3.4715,3.4713,3.4707,3.4695,3.4693,3.4705,3.4705,3.4684,3.4681,3.4679,3.4656,3.4672,3.4671,3.467,3.4618,3.4617,3.4617,0,0,0,0,0,0,3.474,3.4737,3.4712,3.4723,3.472,3.4714,3.4707,3.4707,3.4702,3.4693,3.4692,3.4701,3.4684,3.4681,3.4664,3.4655,3.467,3.4669,3.4619,3.4618,3.4617,3.461,0,0,0,0,0,0,3.4741,3.4738,3.4732,3.4723,3.4719,3.4699,3.4707,3.4706,3.47,3.47,3.4689,3.4687,3.4684,3.4666,3.4663,3.4654,3.4668,3.4619,3.4618,3.4617,3.4611,3.4609,3.4607,0,0,0,0,0,3.4743,3.473,3.4731,3.4728,3.4712,3.4698,3.4696,3.4694,3.4699,3.4692,3.4687,3.4688,3.4657,3.4665,3.4661,3.4651,3.462,3.4619,3.4617,3.4612,3.4609,3.4607,0,0,0,0,0,0,3.4736,3.4729,3.473,3.4715,3.4707,3.4699,3.469,3.4691,3.4681,3.4682,3.4679,3.4676,3.4659,3.4653,3.4662,3.4632,3.4639,3.4637,3.4636,3.4634,3.4632,3.4633,3.4666,0,0,0,0,0,3.4733,3.4724,3.4717,3.4704,3.4701,3.4696,3.469,3.4689,3.4681,3.4677,3.467,3.4661,3.4649,3.4641,3.463,3.461,3.4607,3.4602,3.46,3.4598,3.4596,3.4584,3.4581,3.4612,3.4612,3.4612,0,0,3.4726,3.4721,3.4715,3.4703,3.4697,3.4686,3.4693,3.4682,3.4673,3.4675,3.4659,3.4653,3.4643,3.4624,3.4616,3.4619,3.4587,3.4597,3.4595,3.4594,3.4582,3.4579,3.4577,3.4611,3.4611,3.4612,0,0,3.4708,3.4704,3.4692,3.4686,3.4678,3.4675,3.4672,3.4664,3.466,3.4645,3.4645,3.4634,3.4614,3.4606,3.46,3.4578,3.4579,3.4575,3.4565,3.4553,3.4551,3.4548,3.4539,3.4537,3.4573,3.4573,3.4573,0,3.47,3.4686,3.4685,3.4674,3.4668,3.467,3.4657,3.4651,3.4639,3.4634,3.4638,3.4613,3.4605,3.4585,3.458,3.4574,3.457,3.4576,3.4551,3.4549,3.4547,3.4538,3.4535,3.4572,3.4572,3.4572,3.4572,0,3.4676,3.4666,3.4657,3.4646,3.4639,3.4627,3.4623,3.4616,3.4616,3.4612,3.4595,3.4586,3.4573,3.4568,3.4567,3.4547,3.4549,3.4552,3.4559,3.4543,3.4535,3.4532,3.4572,3.4572,3.4572,3.4572,0,0,3.4653,3.4643,3.4639,3.4634,3.4625,3.4616,3.4603,3.4592,3.4585,3.4576,3.4564,3.4547,3.455,3.4542,3.4541,3.4531,3.4513,3.4535,3.4534,3.453,3.4488,3.4485,3.4481,3.4513,3.4513,3.4512,3.4489,0,3.4633,3.4612,3.4612,3.4592,3.4581,3.4584,3.4572,3.4565,3.4561,3.455,3.4545,3.4533,3.4538,3.4533,3.4524,3.4517,3.4504,3.4519,3.45,3.45,3.4502,3.4477,3.4474,3.4452,3.4486,3.4485,3.4485,0,3.4607,3.4599,3.4579,3.457,3.4566,3.4556,3.4545,3.4536,3.4526,3.4524,3.4515,3.4515,3.45,3.4508,3.4487,3.4497,3.4489,3.4485,3.4484,3.4481,3.4491,3.4473,3.4445,3.4442,3.448,3.448,3.4481,0,3.4591,3.4575,3.456,3.4556,3.4546,3.4539,3.4534,3.4526,3.4519,3.4508,3.4503,3.4491,3.4484,3.4474,3.4469,3.4476,3.4447,3.4455,3.4443,3.4443,3.4436,3.4437,3.4406,3.4433,3.4434,3.4434,3.4434,0,3.4568,3.4555,3.4553,3.4544,3.4529,3.4528,3.4513,3.4508,3.45,3.4489,3.449,3.4479,3.4475,3.4463,3.4459,3.4441,3.4438,3.4434,3.4433,3.4434,3.4434,3.4428,3.4429,3.4433,3.4433,3.4433,3.4433,0,3.4547,3.4545,3.4529,3.4522,3.452,3.4509,3.4502,3.4492,3.4489,3.4475,3.4471,3.4465,3.4451,3.4446,3.4428,3.4425,3.4404,3.4405,3.4408,3.4407,3.4395,3.4396,3.4358,3.4353,3.4385,3.4385,3.4384,0,3.4532,3.4523,3.4515,3.4508,3.4503,3.4493,3.4486,3.4484,3.4476,3.4465,3.4456,3.4443,3.4431,3.4408,3.4401,3.4387,3.4387,3.4375,3.4384,3.4385,3.4385,3.4385,3.4383,3.4372,3.4372,3.4372,3.4372,0,3.4506,3.4505,3.4496,3.4486,3.4478,3.447,3.4461,3.4456,3.4452,3.4443,3.443,3.4421,3.4404,3.4389,3.4375,3.4369,3.4369,3.4369,3.4365,3.4365,3.4366,3.4364,3.4401,3.4369,3.437,3.437,3.437,3.437,3.4486,3.4478,3.4471,3.446,3.4454,3.4446,3.4437,3.4433,3.4422,3.4408,3.4408,3.4393,3.4382,3.4364,3.4356,3.4343,3.4346,3.4341,3.434,3.4338,3.4337,3.437,3.4341,3.4341,3.4341,3.4341,3.4341,0,3.4459,3.4455,3.4445,3.4434,3.4425,3.4429,3.442,3.4411,3.4399,3.439,3.4379,3.4363,3.4349,3.4341,3.4327,3.4318,3.4317,3.4314,3.4314,3.4312,3.4335,3.434,3.4314,3.4314,3.4314,3.4314,3.4314,3.4314,3.4444,3.4429,3.4427,3.4409,3.4404,3.4391,3.4385,3.4378,3.4371,3.4353,3.4342,3.4338,3.4328,3.4314,3.43,3.4298,3.4292,3.4288,3.4286,3.4308,3.431,3.4313,3.4317,3.4287,3.4287,3.4263,3.4263,3.4263]}]]